Location: Lobendorf
(48.4333°N, 15.4167°E)
Time: 21:27:40
(UTC+00:00)

Daily predictions for brighter satellites

Satellite Brightness Start Highest point End
(mag) Time Altitude Azimuth Time Altitude Azimuth Time Altitude Azimuth
Cosmos 1408 3.2 15:47:04 10° NNW 15:50:38 59° W 15:54:10 10° S
CZ-4B R/B 3.8 15:47:52 10° S 15:53:08 62° WSW 15:58:24 10° NNW
ATLAS 5 CENTAUR R/B 2.4 15:50:42 10° NW 15:56:15 60° NE 16:02:38 10° ESE
Cosmos 1437 2.9 15:53:27 10° NNW 15:56:31 73° W 15:59:35 10° S
Cosmos 1697 Rocket 4.3 15:53:40 10° SE 15:56:32 14° E 15:59:25 10° ENE
AQUARIUS 4.3 15:56:38 10° SSE 16:01:00 53° ENE 16:05:25 10° N
Okean O Rocket 2.8 15:57:51 10° S 16:02:06 48° W 16:06:22 10° NNW
CZ-3B R/B 3.1 16:01:00 10° W 16:02:42 28° NNW 16:04:58 10° NE
Meteor 2-3 Rocket 3.8 15:57:53 10° N 16:03:44 84° ENE 16:09:30 10° SSE
NOSS 7 (D) 3.8 16:02:44 10° SW 16:05:42 88° SE 16:08:28 10° NE
Cosmos 2123 Rocket 4.1 16:00:44 10° S 16:06:56 83° W 16:13:10 10° N
NOAA 12 4.4 16:03:19 10° SE 16:08:24 47° ENE 16:13:30 10° N
GEOS 3 Rocket 4.0 16:05:09 10° NE 16:10:13 47° SE 16:15:16 10° SSW
Cosmos 1500 Rocket 3.6 16:05:51 10° N 16:10:16 89° W 16:14:37 10° S
TSX-5 4.3 16:08:28 10° SW 16:12:28 74° WNW 16:17:41 10° NNE
Feng Yun 1-1 Rocket 4.2 16:08:24 10° SSE 16:14:01 85° ENE 16:19:32 10° NNW
CZ-4B R/B 4.1 16:12:04 10° NNW 16:14:31 19° WNW 16:17:00 10° WSW
Cosmos 1633 Rocket 4.1 16:11:29 10° NNE 16:15:02 23° ENE 16:18:36 10° ESE
USA 215 3.7 16:08:55 10° E 16:15:03 45° N 16:21:11 10° WNW
Cosmos 2084 3.9 16:13:57 10° NW 16:18:15 65° SW 16:22:25 10° SSE
Cosmos 1607 3.9 16:14:29 10° NW 16:20:44 83° NE 16:27:01 10° SE
USA 229 DEB 3.9 16:15:21 10° SSW 16:21:39 52° ESE 16:28:12 10° NE
USA 229 3.9 16:15:28 10° SSW 16:21:45 51° ESE 16:28:16 10° NE
Cosmos 1825 4.0 16:19:50 10° NNW 16:23:19 35° W 16:26:45 10° SSW
COSMO-SKYMED 1 3.5 16:21:32 10° NE 16:25:13 26° E 16:28:53 10° SSE
BREEZE-M DEB (TANK) 3.2 16:14:40 10° WSW 16:25:30 90° NNE 16:28:10 17° ENE
Cosmos 1633 3.3 16:23:11 10° N 16:26:30 32° ENE 16:29:47 10° SE
Cosmos 1666 Rocket 4.1 16:22:36 10° N 16:26:38 34° ENE 16:30:37 10° SE
Cosmos 1656 4.1 16:21:41 10° S 16:26:49 40° ESE 16:31:56 10° NE
NOSS 3-1 (A) 4.1 16:22:20 10° S 16:27:09 31° ESE 16:31:30 14° ENE
NOSS 3-1 (C) 3.6 16:22:00 10° SSW 16:27:17 48° ESE 16:32:50 12° NE
PSLV R/B 4.4 16:23:36 10° N 16:27:48 65° WNW 16:31:58 10° SSW
Sich 1 3.3 16:23:44 10° N 16:27:56 46° ENE 16:32:09 10° SSE
Envisat 3.0 16:27:08 10° SSE 16:32:06 58° ENE 16:37:06 10° N
TELKOM 3 4.1 16:31:41 10° W 16:33:43 35° SSW 16:35:15 14° SE
Cosmos 1151 Rocket 4.3 16:32:42 10° SE 16:35:51 20° E 16:36:26 19° ENE
Cosmos 1356 Rocket 3.5 16:35:28 10° S 16:39:30 54° E 16:43:40 10° NNE
SeaSat 1 2.4 16:36:21 10° SSE 16:41:17 87° ENE 16:46:15 10° NNW
SMAP 3.7 16:37:13 10° S 16:41:48 58° W 16:46:25 10° NNW
Cosmos 2219 3.9 16:37:03 10° NW 16:42:34 58° WSW 16:48:03 10° S
Cosmos 2369 Rocket 4.5 16:42:46 10° WNW 16:45:54 15° NW 16:49:02 10° N
Lacrosse 4 Rocket 2.1 16:45:10 10° S 16:48:48 32° ESE 16:49:57 27° E
Cosmos 1869 3.2 16:46:42 10° S 16:50:40 89° W 16:54:37 10° N
YAOGAN 6 2.5 16:47:48 10° SSE 16:51:13 53° ENE 16:54:38 10° N
CZ-4 R/B 4.5 16:47:24 10° SSE 16:51:26 56° ENE 16:55:32 10° N
Cosmos 2221 3.7 16:47:34 10° SSW 16:51:42 44° WNW 16:55:53 10° N
CSL-04 Rocket 3.8 16:48:01 10° SE 16:53:10 50° ENE 16:58:18 10° N
YAOGAN 1 2.8 16:50:22 10° SE 16:54:29 45° ENE 16:58:39 10° N
Cosmos 1513 Rocket 4.5 16:49:19 10° N 16:55:46 72° ENE 17:02:07 10° SSE
Cosmos 724 4.4 16:50:15 10° NNW 16:56:01 53° NE 17:00:08 19° ESE
Cosmos 1470 Rocket 4.2 16:53:26 10° N 16:57:33 34° ENE 17:00:03 20° SE
Geosat 3.9 16:53:26 11° NNE 16:58:23 85° ESE 17:03:25 10° SSW
Meteor 2-11 Rocket 4.5 16:52:58 10° N 16:58:58 55° ENE 17:04:58 10° SSE
Cosmos 2034 Rocket 4.0 16:53:39 10° N 16:59:56 58° ENE 17:06:12 10° SSE
Cosmos 1980 Rocket 3.1 16:55:40 10° SSE 17:00:12 25° ESE 17:00:31 25° E
CZ-4 R/B 1.3 16:56:29 10° SSE 17:00:36 65° ENE 17:04:39 10° N
Cosmos 2227 Rocket 2.6 16:56:34 10° NNW 17:02:11 66° WSW 17:07:47 10° SSE
Cosmos 2297 Rocket 2.8 16:56:43 10° NNW 17:02:17 61° WSW 17:07:51 10° S
ERBS 2.7 16:59:24 10° SSW 17:02:33 42° SE 17:02:51 41° ESE
CENTAUR R/B 4.2 16:59:35 10° NW 17:05:29 26° N 17:09:24 18° NE
NOSS 2-3 (C) 4.4 17:02:50 10° S 17:06:48 35° ESE 17:07:31 33° E
Cosmos 1680 Rocket 3.8 17:03:56 10° S 17:08:51 44° ESE 17:10:57 29° NE
Cosmos 2344 4.3 17:02:48 10° WSW 17:10:06 50° NNW 17:17:42 13° NE
Okean-O 3.7 17:06:03 10° S 17:10:20 48° W 17:14:39 10° NNW
FengYun 1-2 T 4.2 17:06:06 10° SSE 17:11:39 87° W 17:17:10 10° NNW
SKYMED 2 3.4 17:09:12 10° NNE 17:13:34 78° ESE 17:17:54 10° S
Cosmos 1939 Rocket 3.5 17:14:57 38° NE 17:14:57 38° NE 17:18:12 10° N
Ariane Rocket 3.4 17:14:23 36° E 17:15:06 38° ENE 17:19:47 10° N
Cosmos 2369 3.6 17:15:26 10° SSW 17:21:01 67° ESE 17:24:08 27° NE
Cosmos 1634 Rocket 4.4 17:15:23 10° N 17:21:09 38° ENE 17:22:22 35° E
ATLAS 3B R/B 4.1 17:18:18 10° NW 17:23:18 22° N 17:25:37 18° NNE
Tsikada Rocket 4.1 17:18:00 10° SSE 17:24:07 53° E 17:30:20 10° NNE
Cosmos 2263 Rocket 3.0 17:20:28 10° NNW 17:25:09 31° NE 17:25:09 31° NE
H-2A R/B 4.0 17:28:53 16° NNE 17:28:53 16° NNE 17:30:16 10° N
Cosmos 1816 Rocket 4.5 17:22:57 10° S 17:29:09 60° E 17:35:25 10° NNE
Cosmos 2082 4.1 17:24:30 10° NNW 17:30:04 63° WSW 17:35:36 10° SSE
Cosmos 923 Rocket 3.9 17:28:14 10° SSW 17:33:29 89° ESE 17:36:20 28° NNE
Cosmos 2360 4.3 17:28:13 10° S 17:33:43 52° ESE 17:34:33 48° E
Cosmos 1624 Rocket 3.9 17:32:28 10° NNW 17:37:49 68° ENE 17:39:08 49° SE
Cosmos 2056 Rocket 3.3 17:32:55 10° NNW 17:38:02 66° ENE 17:38:47 58° ESE
Cosmos 1697 Rocket 2.6 17:33:57 10° SSW 17:39:37 84° ESE 17:42:02 36° NNE
Cosmos 2278 3.6 17:35:07 10° SSW 17:40:45 71° ESE 17:42:21 47° NE
ATLAS 5 CENTAUR R/B 3.9 17:35:35 10° NW 17:40:52 35° WSW 17:46:46 10° S
Cosmos 1862 4.5 17:37:50 10° NNW 17:41:38 43° W 17:45:24 10° SSW
BREEZE-M DEB (TANK) 4.4 17:46:25 10° WNW 17:47:37 22° WNW 17:47:37 22° WNW
Cosmos 1633 Rocket 4.4 17:48:52 10° NNW 17:52:58 39° W 17:57:05 10° SSW
IRS-1A Rocket 4.1 17:55:49 63° SE 17:56:39 75° ENE 18:02:24 10° NNW
USA 215 3.1 17:56:07 55° E 17:57:39 78° NNE 18:04:11 10° NW
Cosmos 2227 4.2 17:51:59 10° NNW 17:57:32 66° NE 17:57:32 66° NE
COSMO-SKYMED 1 4.0 17:57:28 10° N 18:01:28 36° WNW 18:05:25 10° SW
Meteor 1-25 Rocket 4.3 17:56:51 10° N 18:01:41 61° NNE 18:01:41 61° NNE
DMSP B5D1-3 4.5 18:03:20 71° N 18:03:55 85° WNW 18:09:04 10° SSW
NOSS 2-3 (E) 4.1 18:05:14 10° SW 18:08:54 61° WSW 18:08:54 61° WSW
Meteor 1-20 Rocket 4.3 18:06:31 10° N 18:11:49 72° N 18:11:49 72° N
USA 229 DEB 4.4 18:06:19 10° WSW 18:12:42 47° NW 18:15:39 31° NNE
USA 229 4.4 18:06:26 10° WSW 18:12:49 48° NW 18:15:43 31° NNE
Cosmos 1151 Rocket 4.0 18:08:53 10° SSW 18:13:04 45° WNW 18:13:21 44° WNW
NOSS 3-1 (A) 3.8 18:11:58 10° WSW 18:17:36 59° NW 18:18:58 48° N
NOSS 3-1 (C) 4.3 18:12:41 10° WSW 18:18:13 44° NW 18:20:15 34° N
Lacrosse 4 Rocket 3.4 18:23:48 10° WSW 18:26:18 27° W 18:26:18 27° W
Cosmos 1980 Rocket 3.0 18:38:12 10° SW 18:42:22 46° WSW 18:42:22 46° WSW
CENTAUR R/B 3.8 18:51:01 10° NW 18:56:35 39° N 18:56:35 39° N
H-2A R/B 4.5 19:09:31 16° NNW 19:09:31 16° NNW 19:10:31 10° NNW
Cosmos 2263 Rocket 3.9 19:04:14 10° NW 19:06:52 27° NW 19:06:52 27° NW
ATLAS 3B R/B 4.2 19:09:43 10° NW 19:12:52 26° NNW 19:12:52 26° NNW
